112  
ASUS42 KCHS 200827  
RWRCHS  
 
REGIONAL WEATHER ROUNDUP  
NATIONAL WEATHER SERVICE CHARLESTON SC  
400 AM EDT SAT OCT 20 2018  
 
NOTE: "FAIR" INDICATES FEW OR NO CLOUDS BELOW 12,000 FEET WITH NO  
SIGNIFICANT WEATHER AND/OR S TO VISIBILITY
.  
 
NOT ALL STATIONS ARE QUALITY CONTROLLED. USE DATA WITH CAUTION,  
ESPECIALLY DEWPOINT OBSERVATIONS.  
 
SCZ027-030-031-034>040-042>050-200900-   
..SOUTHEAST SOUTH CAROLINA
 
 
 
CITY SKY/WX TMP DP RH WIND PRES REMARKS
 
N CHARLESTON FAIR 67 66 97 SW5 30.02F  
WATERFRONT PRK N/A 72 70 93 VRB2 29.88F  
MOUNT PLEASANT FAIR 68 66 94 CALM 30.02F  
JOHNS ISLAND FAIR 68 68 100 CALM 30.03F  
PINOPOLIS N/A 70 66 88 SW5 29.95F  
MONCKS CORNER FAIR 64 64 100 CALM 30.02F  
SUMMERVILLE FAIR 63 63 100 CALM 30.04F  
BEAUFORT MCAS FAIR 69 68 96 SW5 30.04F  
BEAUFORT ARPT FAIR 70 70 100 SW3 30.03F  
HILTON HEAD IS CLOUDY 70 68 94 CALM 30.04F  
WALTERBORO FAIR 64 63 94 CALM 30.04F  
ALLENDALE FAIR 66 64 94 CALM 30.03F  
   
..SOUTHERN MIDLANDS AND PEE DEE
 
 
 
CITY SKY/WX TMP DP RH WIND PRES REMARKS
 
GEORGETOWN FAIR 64 63 94 SW5 30.02F  
KINGSTREE FAIR 63 61 94 CALM 30.01F  
ORANGEBURG CLOUDY 67 64 90 SW5 30.03F  
BARNWELL CLOUDY 64 63 94 CALM 30.04F  
AIKEN CLOUDY 63 63 100 SW5 30.06F  
MANNING PTSUNNY 63 61 94 CALM 30.02F  
COLUMBIA CLOUDY 69 64 84 SW7 30.01F  
SUMTER MOCLDY 67 62 83 SW8 30.01F  
FLORENCE MOCLDY 67 65 93 SW7 30.01F  
MYRTLE BEACH FAIR 70 67 90 SW5 30.02F  
N MYRTLE BEACH FAIR 74 69 85 S9 30.00F  
 

 
 
GAZ063-065-086>088-099>101-113>116-118-119-134>141-150-200900-   
..SOUTHEAST GEORGIA
 
 
 
CITY SKY/WX TMP DP RH WIND PRES REMARKS
 
SAVANNAH ARPT FAIR 67 66 97 CALM 30.05F FOG  
HUNTER AAF FAIR 67 64 91 CALM 30.02F  
FORT STEWART FAIR 66 65 95 CALM 30.04F  
STATESBORO MOCLDY 64 64 98 CALM 30.05F  
SYLVANIA FAIR 65 65 100 CALM 30.05F  
CLAXTON N/A 64 64 99 CALM 30.06F FOG  
   
..CSRA, CENTRAL AND FAR SOUTHEAST GEORGIA
 
 
 
CITY SKY/WX TMP DP RH WIND PRES REMARKS
 
THOMSON MOCLDY 63 60 91 W3 30.09F  
AUGUSTA-BUSH CLOUDY 67 63 87 CALM 30.03F  
AUGUSTA-DANIEL CLOUDY 68 61 78 VRB3 30.05F  
SWAINSBORO FAIR 63 61 94 CALM 30.06F  
VIDALIA FAIR 66 63 88 CALM 30.06F  
EASTMAN PTSUNNY 60 60 98 CALM 30.09F  
HAZLEHURST FAIR 68 65 90 CALM 30.05F  
ALMA FOG 68 66 93 CALM 30.05F VSB 1/4  
WAYCROSS FAIR 69 66 90 CALM 30.06F  
JESUP FOG 64 63 94 CALM 30.06S VSB 1/2  
BAXLEY FOG 63 63 100 CALM 30.06F VSB 1/4  
BRUNSWICK FOG 64 64 100 CALM 30.06F VSB 1/4  
SAINT SIMONS FAIR 71 69 93 W3 30.05F  
 

 
 
SCZ027-028-034-036>038-045-046-048>050-GAZ119-141-200900-   
..LAKE AND SUPPLEMENTAL COASTAL OBSERVATIONS
 
 
 
STATION/POSITION TIME TEMP WIND PRES WAVE SWELL
 
AIR SEA DIR/SP/G HT/PER HT/PER/DIR  
(UTC) (F) (DEG/KT/KT) (MB) (FT/S) (FT/S/D)  
WINYAH BAY 0745 69 260/ 2 1017.0F  
LAKE MURRAY 0720 69 260/ 10/ 13 1016.3  
ACE BASIN NERRS 0730 69 CALM 1017.0F  
FORT PULASKI 0800 73 77 240/ 3/ 4 1017.7  
SAPELO ISLAND 0800 72 270/ 2 1018.0  
 

 
 
ANZ835-935-AMZ111-154-330-350-352-354-370-450-454-472-200900-   
..C-MAN AND BUOY OBSERVATIONS
 
 
 
STATION/POSITION TIME TEMP WIND PRES WAVE SWELL
 
AIR SEA DIR/SP/G HT/PER HT/PER/DIR  
(UTC) (F) (DEG/KT/KT) (MB) (FT/S) (FT/S/D)  
BUOY 41004 0810 77 80 1016.6  
BUOY 41008 0750 78 80 210/ 10/ 12 1017.5F 3/ 8 3/ 80/ 8  
FOLLY BEACH CMAN 0800 74 230/ 6/ 8 1017.3F  
CAPERS NEARSHORE 0808 76 77 250/ 10 1015.6F  
FRIPP NEARSHORE 0808 CALM N/A  
 
 
STATION/POSITION TIME TEMP WIND PRES WAVE SWELL
 
AIR SEA DIR/SP/G HT/PER HT/PER/DIR  
(UTC) (F) (DEG/KT/KT) (MB) (FT/S) (FT/S/D)  
5E ST. MARYS GA 0800 81 N/A 3/ 8  
FRYING PAN BUOY 0810 73 79 130/ 14/ 17 1015.5  
BUOY 41025 0810 76 76 210/ 21/ 25 1016.0  
CAPE LOOKOUT NC 0800 200/ 15/ 17 1016.2F  
BUOY 41002 0810 80 1017.7  
BUOY 41010 0810 81 83 160/ 8/ 12 1017.5  
ST AUGUSTINE FL 0800 74 81 240/ 3/ 4 1017.7F  
 

 
 
 
CLICK HERE TO GO TO PREVIOUS BULLETINS.

The Nexlab SC Page
The Nexlab GA Page Main Text Page